Погода в Руцаве

Латвия     56°09′52″N   21°09′40″E
темп.,
°C
ветер,
м/с
пор.,
м/с
влажн.,
%
обл.,
%
осадки,
мм/ч
давл.,
гПа
погр.,
м
17 мая, пн
пн1700:00+12вюв41196100 0.4 1003412
03:00+12ю3996100 0.6 1002394
06:00+11ю3898100 1.3 1003449
09:00+12ююз479397 1.4 1004393
12:00+16юз56613 0.0 10061193
15:00+17юз34551 0.0 10061136
18:00+17зюз22543 0.0 1006862
21:00+11ссз22796 0.0 100615
18 мая, вт
вт1800:00+9ссв3384100 0.0 100651
03:00+9св2395100 0.0 100650
06:00+9ссв2296100 0.0 100540
09:00+15всв2277100 0.0 1005367
12:00+19св1258100 0.0 10041366
15:00+19сз325599 0.2 10041228
18:00+16с367099 0.1 1004299
21:00+13сз367297 0.1 1005165
19 мая, ср
ср1900:00+12с2379100 0.0 100692
03:00+11ссз1183100 0.1 100740
06:00+9сз3584100 0.0 1008203
09:00+10ссз3586100 1.1 1009253
12:00+11зсз3586100 1.4 1009407
15:00+12зсз4586100 2.6 1010439
18:00+13зсз3471100 0.0 1010651
21:00+9зсз2490100 0.0 1011130
20 мая, чт
чт2000:00+8сз2397100 0.0 101159
03:00+7сз1195100 0.0 101111
06:00+7зсз1195100 0.0 101111
09:00+12ссз3574100 0.0 1011438
12:00+16сз465583 0.0 10111432
15:00+15сз575768 0.0 1012938
18:00+13зсз565841 0.0 1012712
21:00+9з388322 0.0 1012304
21 мая, пт
пт2100:00+6юз399699 0.0 1013231
03:00+6юз39964 0.0 1012253
06:00+7зюз410883 0.0 1013445
09:00+9зюз610653 0.0 10141198
12:00+10зюз7105910 0.0 10151482
15:00+10зюз7105915 0.1 10161416
18:00+10зюз79635 0.0 10161093
21:00+7юз49855 0.0 1016545